TimeEST,TemperatureF,Dew PointF,Humidity,Sea Level PressureIn,VisibilityMPH,Wind Direction,Wind SpeedMPH,Gust SpeedMPH,PrecipitationIn,Events,Conditions,WindDirDegrees,DateUTC
12:53 AM,25.0,17.1,72,30.35,9.0,NW,6.9,-,0.00,,Overcast,320,2013-11-13 05:53:00
1:53 AM,25.0,16.0,69,30.35,10.0,WNW,8.1,-,N/A,,Overcast,300,2013-11-13 06:53:00
2:53 AM,24.1,15.1,69,30.36,10.0,WNW,9.2,-,N/A,,Overcast,300,2013-11-13 07:53:00
3:53 AM,24.1,15.1,69,30.37,10.0,WNW,11.5,-,0.00,,Overcast,300,2013-11-13 08:53:00
4:53 AM,24.1,15.1,69,30.37,10.0,WNW,8.1,-,N/A,,Overcast,300,2013-11-13 09:53:00
5:53 AM,23.0,16.0,74,30.38,8.0,WNW,10.4,-,0.00,Snow,Light Snow,300,2013-11-13 10:53:00
6:53 AM,23.0,15.1,72,30.40,10.0,WNW,8.1,-,0.00,,Overcast,290,2013-11-13 11:53:00
7:53 AM,23.0,17.1,78,30.42,10.0,WNW,8.1,-,N/A,,Clear,300,2013-11-13 12:53:00
8:53 AM,24.1,15.1,69,30.42,10.0,NW,9.2,-,N/A,,Clear,310,2013-11-13 13:53:00
9:53 AM,27.0,15.1,61,30.42,10.0,West,9.2,-,N/A,,Partly Cloudy,280,2013-11-13 14:53:00
10:53 AM,30.0,16.0,56,30.40,10.0,West,11.5,-,N/A,,Mostly Cloudy,280,2013-11-13 15:53:00
11:53 AM,32.0,16.0,52,30.37,10.0,West,11.5,-,N/A,,Overcast,280,2013-11-13 16:53:00
12:53 PM,30.9,18.0,59,30.36,10.0,West,11.5,-,N/A,,Overcast,280,2013-11-13 17:53:00
1:45 PM,30.9,19.9,64,30.32,10.0,West,8.1,-,N/A,,Overcast,260,2013-11-13 18:45:00
1:53 PM,30.9,19.0,61,30.34,10.0,WSW,9.2,-,N/A,,Overcast,250,2013-11-13 18:53:00
2:53 PM,33.1,19.0,56,30.31,10.0,SW,6.9,-,N/A,,Overcast,230,2013-11-13 19:53:00
3:53 PM,34.0,21.0,59,30.30,10.0,West,11.5,-,N/A,,Overcast,260,2013-11-13 20:53:00
4:53 PM,32.0,19.0,59,30.28,10.0,WSW,6.9,-,N/A,,Clear,240,2013-11-13 21:53:00
5:53 PM,30.0,19.0,64,30.27,10.0,SSW,4.6,-,N/A,,Clear,210,2013-11-13 22:53:00
6:53 PM,30.0,19.0,64,30.26,10.0,Calm,Calm,-,N/A,,Mostly Cloudy,0,2013-11-13 23:53:00
7:53 PM,32.0,19.0,59,30.24,10.0,SSW,5.8,-,N/A,,Overcast,210,2013-11-14 00:53:00
8:53 PM,30.9,19.0,61,30.22,10.0,South,4.6,-,N/A,,Scattered Clouds,180,2013-11-14 01:53:00
9:53 PM,28.0,19.0,69,30.19,10.0,SE,3.5,-,N/A,,Clear,140,2013-11-14 02:53:00
10:53 PM,28.0,19.9,72,30.17,10.0,East,5.8,-,N/A,,Clear,100,2013-11-14 03:53:00
11:53 PM,27.0,19.0,72,30.15,10.0,East,6.9,-,N/A,,Clear,90,2013-11-14 04:53:00